Location: Strawberry
(45.6646°N, 111.9596°W)
Time: 14:07:33
(UTC+00:00)

AO-27 - Pass Details

Date: 10 December 2022
Orbit: 784 x 798 km, 98.9° (Epoch: 01 February)

Event Time Altitude Azimuth Distance (km) Brightness Sun altitude
Exits shadow 03:02:52 13° 343° (NNW) 2,158 10.1 -33.8°
Drops below altitude 10° 03:03:26 10° 343° (NNW) 2,380 10.3 -33.9°
Sets 03:05:46 0° 345° (NNW) 3,315 11.1 -34.3°
